Theta_e
324 324 323 323 323 323 323 322 323 323 323 323 323 323 324 325 323 325 325 326 326 326 326 325 324 323 322 322 321 321 320 321 320 320 319 318 318 318 315 313 311 311
324 324 322 323 323 322 323 324 323 323 323 324 324 324 324 324 324 324 325 325 325 325 327 327 326 325 324 323 322 321 321 320 320 320 318 317 318 317 317 315 313 311
323 323 323 322 323 323 323 323 323 323 323 324 324 324 324 322 323 323 324 325 325 326 326 327 326 325 324 324 322 321 321 320 320 320 319 318 318 317 317 315 313 310
323 323 323 323 323 323 323 322 322 322 322 322 322 323 322 321 321 322 323 318 325 326 326 326 326 325 324 324 323 322 322 322 322 320 319 319 318 317 316 313 311 308
322 323 323 324 323 323 322 321 321 322 321 322 321 320 318 320 320 320 321 321 323 324 325 325 325 325 323 323 322 321 321 320 320 320 319 318 317 316 315 310 307 306
321 322 323 323 323 322 322 321 321 321 321 320 321 318 319 320 320 320 319 320 320 321 322 323 324 324 323 322 321 321 320 319 318 318 317 316 314 312 311 308 306 304
320 320 320 321 321 321 321 321 321 318 320 321 317 318 319 318 319 319 319 319 319 319 321 322 322 323 321 320 319 318 317 316 315 314 314 312 308 305 303 304 304 304
315 311 316 316 317 318 318 320 320 320 319 315 316 318 316 318 318 319 318 319 319 320 321 321 321 322 320 318 317 317 315 314 310 310 311 308 305 303 300 300 300 299
307 309 311 311 314 316 316 317 317 314 312 314 314 314 313 316 317 317 317 317 318 319 320 319 320 319 318 316 316 315 314 312 311 310 308 304 303 302 300 299 298 297
305 305 305 307 309 311 312 311 311 310 310 312 313 312 312 312 314 316 315 316 318 318 318 318 317 316 315 314 315 312 308 307 305 307 308 306 305 303 301 298 298 295
301 301 304 305 307 307 308 308 308 309 308 310 310 310 311 310 310 311 314 316 317 318 317 317 316 315 314 311 311 311 311 309 307 306 306 306 306 305 298 299 298 298
299 297 300 302 302 301 302 301 301 301 304 304 306 311 308 308 310 311 313 315 316 317 316 315 313 311 311 310 309 308 307 308 308 307 307 306 305 303 300 299 299 298
298 298 298 298 297 297 295 295 297 297 299 302 300 305 307 308 308 311 311 314 315 315 313 312 311 310 311 311 310 309 308 307 305 304 305 304 302 300 297 296 296 295
296 297 297 298 298 298 297 296 296 297 297 299 299 305 307 308 309 310 310 310 311 310 310 307 308 308 309 309 308 307 305 303 303 301 298 295 293 292 292 292 292 291
294 294 295 296 296 298 299 298 298 296 295 297 297 300 303 304 306 309 308 306 303 304 307 307 306 303 302 302 302 302 302 301 298 295 294 293 291 290 290 290 290 289
294 293 294 294 295 297 296 295 295 294 294 295 296 295 296 297 299 300 301 301 303 301 302 303 304 305 298 299 300 303 301 299 296 293 293 292 290 288 288 288 288 288
294 292 291 293 293 293 293 293 293 292 292 293 293 293 294 294 294 297 297 298 299 298 296 299 301 301 297 299 299 299 299 296 295 293 292 291 291 290 289 288 287 286
292 292 291 290 290 291 291 291 291 291 291 292 291 292 292 292 293 295 295 294 295 294 296 296 296 295 297 297 297 297 295 294 293 292 291 291 291 291 290 287 286 285
292 292 292 290 289 289 288 289 290 290 290 291 291 290 289 291 292 292 292 292 292 294 294 293 293 294 296 295 296 296 295 293 292 291 290 289 289 288 287 287 286 285
291 291 291 291 289 288 288 288 289 290 289 288 288 288 289 290 290 290 290 290 291 292 291 291 291 292 294 294 294 295 294 293 290 289 289 288 288 287 286 286 286 285
291 290 290 290 289 288 288 288 288 288 288 288 288 288 289 289 289 289 290 290 290 290 290 290 291 291 294 294 294 294 294 291 288 288 288 287 287 287 286 286 286 286
291 290 290 289 288 288 288 288 288 288 288 287 288 288 287 288 288 288 289 288 288 288 289 289 288 291 292 293 294 294 292 289 288 288 287 287 286 286 286 285 284 283
290 290 289 288 288 288 288 288 287 287 287 287 288 288 288 288 288 287 288 288 288 288 289 289 287 289 292 292 293 293 291 288 287 287 286 286 285 285 285 284 283 283
290 290 289 288 287 288 288 288 287 287 287 287 288 288 288 287 287 287 287 287 287 288 289 288 287 287 290 292 292 292 289 287 287 286 285 285 284 283 283 283 284 283
289 289 289 288 288 288 288 287 287 287 286 287 287 287 287 287 287 287 286 286 286 287 287 287 286 286 289 291 291 291 288 286 286 286 285 284 283 283 283 283 282 283
289 288 288 288 288 287 287 287 287 287 287 287 287 287 287 287 287 287 286 286 286 286 286 287 286 286 288 291 291 290 289 286 286 285 284 283 283 282 281 281 281 281
Wind_Speed
13 11 12 12 12 11 11 12 11 11 11 11 11 12 12 12 9 11 12 12 12 12 12 12 11 11 11 11 11 10 10 12 11 10 11 11 11 12 11 11 9 9
14 14 11 11 11 11 12 12 12 11 12 11 11 10 10 9 9 10 11 11 12 13 12 12 12 12 12 11 11 11 11 11 12 9 11 13 12 12 13 13 12 10
14 13 14 15 15 15 14 11 9 10 11 11 10 10 10 8 9 9 10 11 11 12 12 12 12 12 12 12 11 11 12 12 12 10 11 12 11 11 11 11 9 11
15 15 15 15 14 13 11 9 10 10 10 9 12 9 8 7 7 9 10 10 11 11 11 11 12 11 12 12 12 11 12 12 12 11 11 10 11 11 10 9 9 8
14 14 13 13 13 12 9 10 13 12 11 12 8 8 8 9 9 9 10 10 10 11 10 11 11 12 11 11 12 11 11 11 10 11 12 12 10 10 9 9 9 9
11 12 12 12 12 11 11 13 13 12 12 11 12 7 9 10 9 11 10 11 10 10 10 10 11 10 10 10 10 11 10 10 9 11 12 11 9 9 9 9 9 10
11 10 10 10 9 10 11 12 12 11 11 11 6 10 10 9 11 11 11 11 11 11 12 11 11 11 9 9 9 10 9 9 10 11 12 9 9 9 6 7 8 10
7 5 6 6 8 10 12 12 12 11 11 7 10 10 9 11 11 10 9 10 11 11 11 11 11 11 9 9 9 10 10 9 7 7 10 10 9 8 6 6 6 6
5 6 6 7 9 9 10 10 10 7 6 9 9 9 8 10 10 9 10 10 11 11 11 11 11 10 9 10 10 11 11 10 11 12 10 7 7 8 8 8 7 7
8 7 7 8 9 9 9 8 7 7 7 8 9 7 9 8 8 9 9 10 11 10 10 10 11 10 9 10 11 10 7 5 4 7 11 13 13 12 10 10 11 10
7 7 8 9 9 8 9 9 8 8 7 9 7 8 8 7 7 7 8 9 10 10 10 11 11 12 11 9 8 8 11 11 10 8 8 9 10 12 13 13 12 13
5 4 6 6 6 5 5 4 4 5 5 6 6 8 6 6 7 7 8 9 9 10 11 11 10 9 9 9 9 6 5 6 10 12 12 12 12 11 12 12 13 13
4 4 3 3 3 3 3 3 4 5 5 6 5 6 6 7 7 8 8 9 9 9 9 7 7 8 9 10 10 10 10 10 9 9 11 11 10 9 8 8 9 9
3 2 1 1 1 2 2 3 3 2 3 4 4 6 7 7 8 9 9 9 9 7 6 5 5 6 9 11 11 11 10 9 9 10 8 5 4 3 5 6 5 6
3 3 2 2 2 2 1 2 3 3 3 2 3 5 5 5 5 6 8 7 4 5 7 8 9 8 3 1 3 5 7 9 8 7 6 6 5 4 4 6 6 5
4 3 3 3 3 4 4 3 2 3 4 4 4 4 4 4 4 2 1 3 5 6 6 6 7 7 12 18 15 11 10 9 8 8 8 7 7 6 5 6 7 7
4 3 3 3 3 2 3 3 3 3 4 4 4 4 4 4 4 4 5 5 5 4 4 5 6 7 14 15 15 12 8 7 9 8 8 8 9 10 10 8 6 5
4 3 3 3 2 3 3 3 3 3 4 3 3 2 2 2 3 4 4 4 4 4 5 6 5 5 7 9 10 10 9 6 5 6 7 8 8 8 7 8 8 7
5 5 4 4 3 2 2 2 3 3 3 3 4 3 3 3 4 3 4 3 3 4 4 4 4 4 6 7 8 9 10 8 5 6 6 5 5 6 7 7 6 7
6 6 5 5 3 3 2 2 1 3 2 2 2 2 3 2 2 3 2 3 3 4 4 2 3 3 6 8 9 10 11 8 4 5 5 5 5 5 5 8 9 9
6 6 5 5 4 4 3 3 3 2 2 2 3 3 3 3 3 3 2 1 1 1 1 1 1 3 6 8 9 10 10 8 5 5 6 7 7 8 9 9 10 10
7 6 5 5 4 4 4 4 3 4 4 3 2 2 2 3 2 2 3 2 2 3 3 3 2 6 8 10 11 12 13 7 7 8 7 6 6 6 7 6 4 5
7 7 6 6 5 5 5 4 4 4 3 3 3 3 3 3 3 3 3 4 4 5 5 4 4 6 9 11 12 14 10 5 6 5 5 7 6 5 5 5 5 5
7 7 7 6 6 6 6 5 3 3 3 3 4 5 4 4 3 3 3 4 4 4 4 4 3 4 8 10 12 14 10 7 6 6 5 4 4 4 3 4 3 6
7 7 7 7 7 6 6 6 5 5 3 3 3 4 4 3 3 4 3 2 2 3 4 3 3 2 6 7 9 11 7 5 6 6 6 5 5 5 3 3 3 4
8 8 7 7 7 6 5 5 5 5 5 5 4 4 4 3 4 4 5 4 4 5 5 5 6 5 7 10 11 11 8 5 4 5 6 6 5 5 5 4 5 5
Wind_Direction
217 216 217 218 222 224 222 219 218 217 219 218 217 221 219 223 210 207 212 213 213 214 213 213 210 211 211 208 207 207 208 211 211 205 202 199 203 200 202 202 198 198
215 215 217 221 225 224 225 220 218 216 222 220 223 225 225 219 214 209 212 213 214 217 215 214 213 213 211 210 208 209 211 210 213 201 201 200 204 200 204 198 199 196
213 213 215 217 221 224 224 223 222 224 225 225 225 225 225 215 217 211 215 214 215 217 215 214 214 214 212 211 208 210 211 210 212 202 202 203 200 202 204 196 195 191
213 214 215 220 224 227 224 220 225 229 228 229 226 225 221 218 212 213 216 215 218 217 215 213 215 214 213 214 210 213 212 212 210 199 203 203 202 200 199 189 192 186
213 215 218 221 223 224 218 218 224 225 224 228 229 220 214 215 211 213 214 215 216 219 214 215 214 215 213 214 211 214 213 213 207 202 202 203 200 195 194 182 181 184
218 218 217 219 220 217 218 221 225 224 225 226 225 212 218 216 214 216 213 214 213 216 217 217 215 215 211 214 211 215 210 212 208 201 205 206 199 195 185 184 178 186
218 216 219 217 218 216 219 223 225 223 222 223 210 217 215 214 216 217 215 214 213 214 217 218 218 218 213 211 212 213 212 212 203 200 206 207 187 187 177 174 183 195
228 221 217 212 213 216 219 221 223 220 220 209 212 220 207 215 217 217 214 212 214 216 217 218 217 217 212 209 211 213 211 200 203 211 206 192 182 178 169 170 172 174
214 218 211 211 214 218 222 222 225 222 206 211 215 218 210 213 216 214 213 211 214 216 214 215 213 211 207 205 208 210 211 206 194 189 190 185 190 182 175 169 165 176
209 210 206 212 217 220 222 222 218 214 206 213 214 212 212 216 214 213 211 210 215 214 213 210 208 205 199 199 202 198 194 200 213 210 194 185 185 184 178 173 182 181
215 207 208 211 216 214 220 217 217 215 211 215 212 216 215 208 215 212 210 212 214 212 209 208 204 200 196 196 202 198 192 187 189 200 210 206 197 192 183 179 181 186
222 216 224 228 230 238 243 249 247 236 229 230 216 221 214 212 207 207 208 212 212 210 206 205 202 199 200 197 188 185 210 219 202 197 205 208 207 198 187 184 184 184
213 211 206 205 206 211 203 206 215 218 219 225 216 213 210 208 207 207 211 210 207 204 205 201 201 197 197 197 198 197 198 201 212 222 214 210 212 201 175 179 183 175
209 207 200 205 199 191 189 194 184 187 212 219 192 200 202 205 205 206 208 202 205 210 217 220 214 204 201 198 193 189 190 205 209 207 207 198 185 169 144 151 158 156
188 199 197 221 226 223 217 199 194 197 194 182 190 203 205 212 216 210 199 207 234 224 210 194 191 190 182 190 180 184 187 194 196 192 184 172 159 149 150 142 147 163
174 177 186 194 214 221 224 224 221 213 211 212 203 200 202 195 178 172 219 223 200 205 199 188 192 191 191 188 190 191 192 191 176 174 172 167 162 148 148 160 167 177
161 169 164 195 205 211 202 198 211 196 199 204 206 195 195 194 185 192 192 185 182 181 208 222 214 210 203 195 198 195 184 180 179 176 172 167 169 170 176 173 162 153
190 179 186 200 177 203 201 198 186 190 196 192 173 173 192 159 184 202 195 195 190 189 194 206 229 262 227 203 192 181 170 168 164 166 176 182 179 176 168 160 159 154
203 212 217 208 204 182 178 169 178 183 185 175 200 199 141 162 204 188 207 197 187 198 213 219 225 211 200 190 178 168 162 157 169 169 169 171 167 159 158 155 153 154
193 195 200 202 188 171 155 157 162 204 185 156 131 123 158 180 165 188 182 180 194 201 214 210 203 193 176 174 171 165 163 157 151 149 148 150 152 143 142 163 168 170
185 183 185 187 183 175 171 180 186 165 149 151 148 154 161 177 177 184 190 173 173 153 153 182 186 161 170 168 170 164 151 133 131 134 145 155 164 172 174 171 180 184
175 178 178 173 172 172 179 188 179 177 181 164 129 114 115 119 115 129 152 148 137 136 147 189 173 175 175 172 165 160 150 147 153 159 165 168 170 173 177 181 161 164
173 173 174 171 170 172 183 183 180 177 163 153 138 149 147 151 156 151 155 157 165 170 175 190 181 186 180 175 170 163 152 155 155 152 161 169 171 162 163 160 168 167
172 169 169 170 170 180 185 186 172 154 160 167 161 163 166 168 158 136 149 160 168 184 185 182 178 189 185 179 174 169 161 155 158 155 151 145 128 125 131 145 160 161
166 167 169 171 177 186 180 171 171 169 156 153 151 152 156 151 149 138 124 113 130 141 135 133 119 160 183 181 175 163 148 148 150 150 148 147 148 146 129 130 126 150
167 169 172 174 182 175 166 166 153 146 158 159 158 153 151 155 153 152 150 157 153 147 156 158 155 163 173 173 169 156 124 123 117 143 158 155 153 151 150 147 152 162